This demonstration page uses our WeatherBlox Daily Observations layout. Learn more.

Left ArrowRight Arrow

40.97296, -117.73568

Hourly Observations for August 14, 2015

Temp ( °F °C ) Dew Point ( °F °C ) Humidity (%) Winds ( mph kmh ) Pressure ( in mb ) Visibility ( mi km ) Precip ( " mm )
12:56 am 00:56 Clear 70 21.1 44 6.7 39 39 SE 8 13 29.90 1013 10 16 0.00 0.00
1:56 am 01:56 Clear 67 19.4 40 4.4 37 37 Calm 29.91 1013 10 16 0.00 0.00
2:56 am 02:56 Clear 64 17.8 40 4.4 41 41 Calm 29.90 1013 10 16 0.00 0.00
3:56 am 03:56 Clear 59 15 42 5.6 54 54 ESE 8 13 29.92 1013 10 16 0.00 0.00
4:56 am 04:56 Clear 60 15.6 42 5.6 52 52 E 7 11 29.92 1013 10 16 0.00 0.00
5:56 am 05:56 Clear 55 12.8 43 6.1 64 64 S 3 6 29.93 1014 10 16 0.00 0.00
6:56 am 06:56 Sunny 60 15.6 44 6.7 56 56 SE 3 6 29.93 1014 10 16 0.00 0.00
7:56 am 07:56 Sunny 70 21.1 45 7.2 41 41 Calm 29.93 1014 10 16 0.00 0.00
8:56 am 08:56 Sunny 76 24.4 45 7.2 33 33 NE 5 7 29.93 1014 10 16 0.00 0.00
9:56 am 09:56 Sunny 83 28.3 40 4.4 22 22 W 8 13 29.91 1013 10 16 0.00 0.00
10:56 am 10:56 Sunny 87 30.6 37 2.8 17 17 WSW 10 17 29.91 1013 10 16 0.00 0.00
11:56 am 11:56 Sunny 88 31.1 37 2.8 16 16 W 8 13 29.91 1013 10 16 0.00 0.00
12:23 pm 12:23 Sunny 91 32.8 39 3.9 16 16 W 14 22 29.65 1004 10 16 0.00 0.00
12:56 pm 12:56 Sunny 93 33.9 39 3.9 15 15 SW 15 24 29.88 1012 10 16 0.00 0.00
1:56 pm 13:56 Sunny 95 35 37 2.8 13 13 SW 23 37 29.87 1011 10 16 0.00 0.00
2:56 pm 14:56 Sunny 95 35 36 2.2 13 13 SSW 14 22 29.86 1011 10 16 0.00 0.00
3:56 pm 15:56 Sunny 94 34.4 35 1.7 13 13 WSW 13 20 29.85 1011 10 16 0.00 0.00
4:56 pm 16:56 Sunny 94 34.4 29 -1.7 10 10 WSW 21 33 29.85 1011 10 16 0.00 0.00
5:56 pm 17:56 undefined 92 33.3 23 -5 8 8 W 21 33 29.86 1011 10 16 0.00 0.00
6:25 pm 18:25 Sunny with Thunderstorms 89 31.7 23 -5 9 9 W 24 39 29.65 1004 10 16 0.00 0.00
6:56 pm 18:56 Sunny with Thunderstorms 86 30 21 -6.1 9 9 W 21 33 29.89 1012 10 16 0.00 0.00
7:45 pm 19:45 Sunny with Nearby Thunderstorms 82 28 18 -8 9 9 W 21 33 29.71 1006 10 16 0.00 0.00
7:56 pm 19:56 Clear 81 27.2 18 -7.8 9 9 W 17 28 29.90 1013 10 16 0.00 0.00
8:03 pm 20:03 Clear with Nearby Thunderstorms 81 27 19 -7 10 10 WSW 12 19 29.74 1007 10 16 0.00 0.00
8:26 pm 20:26 Clear 79 26.1 18 -7.8 10 10 W 12 19 29.74 1007 10 16 0.00 0.00
8:34 pm 20:34 Clear with Nearby Thunderstorms 79 26 18 -8 10 10 W 14 22 29.77 1008 10 16 0.00 0.00
8:49 pm 20:49 Clear 79 26 18 -8 10 10 W 15 24 29.77 1008 10 16 0.00 0.00
8:56 pm 20:56 Clear 77 25 18 -7.8 11 11 W 14 22 29.93 1014 10 16 0.00 0.00
9:56 pm 21:56 Clear 74 23.3 16 -8.9 11 11 Calm 29.98 1015 10 16 0.00 0.00
10:56 pm 22:56 Clear 71 21.7 14 -10 11 11 W 13 20 30.00 1016 10 16 0.00 0.00
11:56 pm 23:56 Clear 61 16.1 16 -8.9 17 17 Calm 30.03 1017 10 16 0.00 0.00

Powered by AerisWeather